Year,Month,Day,Hour,Minute,Value (Times are PST for temperature in C)
2005,08,16,00,00,17.80
2005,08,16,00,01,17.70
2005,08,16,00,02,17.70
2005,08,16,00,03,17.70
2005,08,16,00,04,17.70
2005,08,16,00,05,17.70
2005,08,16,00,06,17.60
2005,08,16,00,07,17.60
2005,08,16,00,08,17.60
2005,08,16,00,09,17.50
2005,08,16,00,10,17.50
2005,08,16,00,11,17.50
2005,08,16,00,12,17.50
2005,08,16,00,13,17.40
2005,08,16,00,15,17.40
2005,08,16,00,16,17.40
2005,08,16,00,17,17.30
2005,08,16,00,18,17.30
2005,08,16,00,19,17.30
2005,08,16,00,22,17.30
2005,08,16,00,25,17.30
2005,08,16,00,27,17.30
2005,08,16,00,28,17.30
2005,08,16,00,29,17.30
2005,08,16,00,30,17.30
2005,08,16,00,32,17.30
2005,08,16,00,33,17.30
2005,08,16,00,35,17.30
2005,08,16,00,37,17.30
2005,08,16,00,38,17.30
2005,08,16,00,39,17.30
2005,08,16,00,41,17.30
2005,08,16,00,42,17.30
2005,08,16,00,44,17.20
2005,08,16,00,45,17.20
2005,08,16,00,46,17.20
2005,08,16,00,47,17.20
2005,08,16,00,48,17.20
2005,08,16,00,49,17.10
2005,08,16,00,51,17.10
2005,08,16,00,52,17.10
2005,08,16,00,53,17.10
2005,08,16,00,54,17.00
2005,08,16,00,55,17.00
2005,08,16,00,56,17.00
2005,08,16,00,57,17.00
2005,08,16,00,59,16.90
2005,08,16,01,00,16.90
2005,08,16,01,01,16.90
2005,08,16,01,02,16.90
2005,08,16,01,03,16.90
2005,08,16,01,05,16.80
2005,08,16,01,06,16.80
2005,08,16,01,07,16.80
2005,08,16,01,08,16.80
2005,08,16,01,09,16.80
2005,08,16,01,10,16.80
2005,08,16,01,11,16.80
2005,08,16,01,12,16.80
2005,08,16,01,13,16.80
2005,08,16,01,15,16.80
2005,08,16,01,16,16.80
2005,08,16,01,17,16.80
2005,08,16,01,18,16.80
2005,08,16,01,20,16.70
2005,08,16,01,21,16.70
2005,08,16,01,22,16.70
2005,08,16,01,23,16.70
2005,08,16,01,24,16.70
2005,08,16,01,25,16.70
2005,08,16,01,26,16.70
2005,08,16,01,27,16.70
2005,08,16,01,28,16.60
2005,08,16,01,29,16.60
2005,08,16,01,30,16.50
2005,08,16,01,31,16.40
2005,08,16,01,32,16.40
2005,08,16,01,34,16.40
2005,08,16,01,35,16.40
2005,08,16,01,36,16.40
2005,08,16,01,38,16.40
2005,08,16,01,40,16.40
2005,08,16,01,43,16.40
2005,08,16,01,47,16.40
2005,08,16,01,51,16.40
2005,08,16,01,52,16.40
2005,08,16,01,53,16.30
2005,08,16,01,54,16.30
2005,08,16,01,55,16.40
2005,08,16,01,56,16.40
2005,08,16,01,57,16.40
2005,08,16,01,58,16.40
2005,08,16,01,59,16.40
2005,08,16,02,00,16.40
2005,08,16,02,01,16.40
2005,08,16,02,02,16.50
2005,08,16,02,03,16.60
2005,08,16,02,04,16.60
2005,08,16,02,05,16.60
2005,08,16,02,06,16.50
2005,08,16,02,07,16.50
2005,08,16,02,08,16.50
2005,08,16,02,09,16.40
2005,08,16,02,10,16.50
2005,08,16,02,11,16.60
2005,08,16,02,12,16.50
2005,08,16,02,13,16.40
2005,08,16,02,14,16.40
2005,08,16,02,15,16.40
2005,08,16,02,16,16.40
2005,08,16,02,17,16.40
2005,08,16,02,18,16.40
2005,08,16,02,19,16.40
2005,08,16,02,20,16.40
2005,08,16,02,21,16.40
2005,08,16,02,22,16.40
2005,08,16,02,23,16.40
2005,08,16,02,24,16.40
2005,08,16,02,25,16.40
2005,08,16,02,26,16.40
2005,08,16,02,27,16.40
2005,08,16,02,28,16.40
2005,08,16,02,29,16.40
2005,08,16,02,30,16.40
2005,08,16,02,31,16.40
2005,08,16,02,32,16.40
2005,08,16,02,33,16.50
2005,08,16,02,34,16.50
2005,08,16,02,35,16.50
2005,08,16,02,36,16.50
2005,08,16,02,37,16.40
2005,08,16,02,38,16.40
2005,08,16,02,39,16.50
2005,08,16,02,40,16.60
2005,08,16,02,41,16.50
2005,08,16,02,42,16.40
2005,08,16,02,43,16.40
2005,08,16,02,44,16.40
2005,08,16,02,45,16.40
2005,08,16,02,46,16.40
2005,08,16,02,47,16.40
2005,08,16,02,48,16.40
2005,08,16,02,49,16.30
2005,08,16,02,50,16.30
2005,08,16,02,51,16.30
2005,08,16,02,52,16.20
2005,08,16,02,53,16.20
2005,08,16,02,54,16.20
2005,08,16,02,55,16.30
2005,08,16,02,56,16.20
2005,08,16,02,57,16.20
2005,08,16,02,58,16.20
2005,08,16,02,59,16.20
2005,08,16,03,00,16.20
2005,08,16,03,01,16.20
2005,08,16,03,02,16.20
2005,08,16,03,03,16.10
2005,08,16,03,04,16.10
2005,08,16,03,05,16.10
2005,08,16,03,06,16.10
2005,08,16,03,07,16.10
2005,08,16,03,08,16.10
2005,08,16,03,09,15.90
2005,08,16,03,10,15.80
2005,08,16,03,11,15.70
2005,08,16,03,12,15.60
2005,08,16,03,13,15.60
2005,08,16,03,14,15.60
2005,08,16,03,15,15.50
2005,08,16,03,16,15.50
2005,08,16,03,17,15.40
2005,08,16,03,18,15.40
2005,08,16,03,19,15.40
2005,08,16,03,20,15.50
2005,08,16,03,21,15.50
2005,08,16,03,22,15.60
2005,08,16,03,23,15.70
2005,08,16,03,24,15.80
2005,08,16,03,25,15.80
2005,08,16,03,26,15.70
2005,08,16,03,27,15.70
2005,08,16,03,28,15.70
2005,08,16,03,29,15.60
2005,08,16,03,30,15.60
2005,08,16,03,31,15.50
2005,08,16,03,32,15.50
2005,08,16,03,33,15.50
2005,08,16,03,34,15.60
2005,08,16,03,35,15.60
2005,08,16,03,36,15.70
2005,08,16,03,37,15.70
2005,08,16,03,38,15.80
2005,08,16,03,39,15.80
2005,08,16,03,40,15.70
2005,08,16,03,41,15.70
2005,08,16,03,42,15.60
2005,08,16,03,43,15.70
2005,08,16,03,44,15.70
2005,08,16,03,45,15.70
2005,08,16,03,46,15.70
2005,08,16,03,47,15.70
2005,08,16,03,48,15.70
2005,08,16,03,49,15.70
2005,08,16,03,50,15.70
2005,08,16,03,51,15.80
2005,08,16,03,52,15.80
2005,08,16,03,53,15.80
2005,08,16,03,54,15.80
2005,08,16,03,55,15.80
2005,08,16,03,56,15.80
2005,08,16,03,57,15.80
2005,08,16,03,58,15.80
2005,08,16,03,59,15.80
2005,08,16,04,00,15.80
2005,08,16,04,01,15.80
2005,08,16,04,02,15.80
2005,08,16,04,03,15.80
2005,08,16,04,04,15.70
2005,08,16,04,05,15.70
2005,08,16,04,06,15.70
2005,08,16,04,07,15.70
2005,08,16,04,08,15.70
2005,08,16,04,09,15.60
2005,08,16,04,10,15.60
2005,08,16,04,11,15.60
2005,08,16,04,12,15.60
2005,08,16,04,13,15.60
2005,08,16,04,14,15.50
2005,08,16,04,15,15.50
2005,08,16,04,16,15.40
2005,08,16,04,17,15.40
2005,08,16,04,18,15.30
2005,08,16,04,19,15.30
2005,08,16,04,20,15.30
2005,08,16,04,21,15.30
2005,08,16,04,22,15.30
2005,08,16,04,23,15.30
2005,08,16,04,24,15.30
2005,08,16,04,25,15.30
2005,08,16,04,26,15.30
2005,08,16,04,27,15.30
2005,08,16,04,28,15.20
2005,08,16,04,29,15.20
2005,08,16,04,30,15.20
2005,08,16,04,31,15.20
2005,08,16,04,32,15.20
2005,08,16,04,33,15.20
2005,08,16,04,34,15.20
2005,08,16,04,35,15.20
2005,08,16,04,36,15.10
2005,08,16,04,37,15.10
2005,08,16,04,38,15.10
2005,08,16,04,39,15.10
2005,08,16,04,40,15.10
2005,08,16,04,41,15.10
2005,08,16,04,42,15.10
2005,08,16,04,43,15.10
2005,08,16,04,44,15.10
2005,08,16,04,45,15.00
2005,08,16,04,46,15.00
2005,08,16,04,47,15.00
2005,08,16,04,48,15.00
2005,08,16,04,49,15.00
2005,08,16,04,50,15.00
2005,08,16,04,51,15.00
2005,08,16,04,52,15.10
2005,08,16,04,53,15.10
2005,08,16,04,54,15.10
2005,08,16,04,55,15.10
2005,08,16,04,56,15.10
2005,08,16,04,57,15.00
2005,08,16,04,58,15.00
2005,08,16,04,59,15.00
2005,08,16,05,00,15.00
2005,08,16,05,01,15.00
2005,08,16,05,02,15.00
2005,08,16,05,03,14.90
2005,08,16,05,04,14.80
2005,08,16,05,05,14.80
2005,08,16,05,06,14.80
2005,08,16,05,07,14.80
2005,08,16,05,08,14.80
2005,08,16,05,09,14.80
2005,08,16,05,10,14.70
2005,08,16,05,11,14.70
2005,08,16,05,12,14.60
2005,08,16,05,13,14.60
2005,08,16,05,14,14.60
2005,08,16,05,15,14.50
2005,08,16,05,16,14.50
2005,08,16,05,17,14.50
2005,08,16,05,18,14.50
2005,08,16,05,19,14.50
2005,08,16,05,20,14.50
2005,08,16,05,21,14.40
2005,08,16,05,22,14.30
2005,08,16,05,23,14.20
2005,08,16,05,24,14.20
2005,08,16,05,25,14.30
2005,08,16,05,26,14.30
2005,08,16,05,27,14.20
2005,08,16,05,28,14.20
2005,08,16,05,29,14.20
2005,08,16,05,30,14.10
2005,08,16,05,31,14.00
2005,08,16,05,32,14.00
2005,08,16,05,33,13.90
2005,08,16,05,34,13.90
2005,08,16,05,35,13.90
2005,08,16,05,36,13.80
2005,08,16,05,37,13.70
2005,08,16,05,38,13.70
2005,08,16,05,39,13.70
2005,08,16,05,40,13.70
2005,08,16,05,41,13.60
2005,08,16,05,42,13.60
2005,08,16,05,43,13.60
2005,08,16,05,44,13.60
2005,08,16,05,45,13.60
2005,08,16,05,46,13.60
2005,08,16,05,47,13.60
2005,08,16,05,48,13.50
2005,08,16,05,49,13.50
2005,08,16,05,50,13.60
2005,08,16,05,51,13.60
2005,08,16,05,52,13.60
2005,08,16,05,53,13.60
2005,08,16,05,54,13.60
2005,08,16,05,55,13.60
2005,08,16,05,56,13.60
2005,08,16,05,57,13.60
2005,08,16,05,58,13.60
2005,08,16,05,59,13.60
2005,08,16,06,00,13.60
2005,08,16,06,01,13.60
2005,08,16,06,02,13.60
2005,08,16,06,03,13.60
2005,08,16,06,04,13.50
2005,08,16,06,05,13.50
2005,08,16,06,06,13.50
2005,08,16,06,07,13.40
2005,08,16,06,08,13.40
2005,08,16,06,09,13.30
2005,08,16,06,10,13.30
2005,08,16,06,11,13.30
2005,08,16,06,12,13.30
2005,08,16,06,13,13.30
2005,08,16,06,14,13.30
2005,08,16,06,15,13.30
2005,08,16,06,16,13.30
2005,08,16,06,17,13.30
2005,08,16,06,18,13.30
2005,08,16,06,19,13.20
2005,08,16,06,20,13.20
2005,08,16,06,21,13.20
2005,08,16,06,22,13.20
2005,08,16,06,23,13.20
2005,08,16,06,24,13.20
2005,08,16,06,25,13.20
2005,08,16,06,26,13.10
2005,08,16,06,27,13.10
2005,08,16,06,28,13.00
2005,08,16,06,29,13.00
2005,08,16,06,30,13.00
2005,08,16,06,31,12.90
2005,08,16,06,32,12.90
2005,08,16,06,33,12.90
2005,08,16,06,34,13.00
2005,08,16,06,35,13.00
2005,08,16,06,36,13.10
2005,08,16,06,37,13.20
2005,08,16,06,38,13.20
2005,08,16,06,39,13.20
2005,08,16,06,40,13.20
2005,08,16,06,41,13.10
2005,08,16,06,42,13.10
2005,08,16,06,43,13.10
2005,08,16,06,44,13.10
2005,08,16,06,45,13.10
2005,08,16,06,46,13.00
2005,08,16,06,47,13.00
2005,08,16,06,48,13.10
2005,08,16,06,49,13.10
2005,08,16,06,50,13.00
2005,08,16,06,51,13.00
2005,08,16,06,52,13.00
2005,08,16,06,53,13.00
2005,08,16,06,54,13.00
2005,08,16,06,55,13.00
2005,08,16,06,56,12.90
2005,08,16,06,57,12.90
2005,08,16,06,58,12.90
2005,08,16,06,59,12.80
2005,08,16,07,00,12.80
2005,08,16,07,01,12.80
2005,08,16,07,02,12.80
2005,08,16,07,03,12.80
2005,08,16,07,04,12.80
2005,08,16,07,05,12.70
2005,08,16,07,06,12.70
2005,08,16,07,07,12.70
2005,08,16,07,08,12.70
2005,08,16,07,09,12.60
2005,08,16,07,10,12.60
2005,08,16,07,11,12.60
2005,08,16,07,12,12.60
2005,08,16,07,13,12.60
2005,08,16,07,14,12.60
2005,08,16,07,15,12.70
2005,08,16,07,16,12.70
2005,08,16,07,17,12.70
2005,08,16,07,18,12.70
2005,08,16,07,19,12.80
2005,08,16,07,20,12.80
2005,08,16,07,21,12.80
2005,08,16,07,22,12.80
2005,08,16,07,23,12.80
2005,08,16,07,24,12.80
2005,08,16,07,25,12.80
2005,08,16,07,26,12.90
2005,08,16,07,27,12.90
2005,08,16,07,28,12.90
2005,08,16,07,29,12.90
2005,08,16,07,30,12.90
2005,08,16,07,31,12.90
2005,08,16,07,32,12.90
2005,08,16,07,33,12.80
2005,08,16,07,34,12.80
2005,08,16,07,35,12.80
2005,08,16,07,36,12.90
2005,08,16,07,37,12.90
2005,08,16,07,38,12.90
2005,08,16,07,39,12.80
2005,08,16,07,40,12.80
2005,08,16,07,41,12.80
2005,08,16,07,42,12.80
2005,08,16,07,43,12.80
2005,08,16,07,44,12.80
2005,08,16,07,45,12.80
2005,08,16,07,46,12.80
2005,08,16,07,47,12.80
2005,08,16,07,48,12.80
2005,08,16,07,49,12.80
2005,08,16,07,50,12.80
2005,08,16,07,51,12.90
2005,08,16,07,52,12.90
2005,08,16,07,53,12.90
2005,08,16,07,54,12.90
2005,08,16,07,55,13.00
2005,08,16,07,56,13.00
2005,08,16,07,57,13.00
2005,08,16,07,58,13.10
2005,08,16,07,59,13.10
2005,08,16,08,00,13.20
2005,08,16,08,01,13.20
2005,08,16,08,02,13.30
2005,08,16,08,03,13.50
2005,08,16,08,04,13.50
2005,08,16,08,05,13.60
2005,08,16,08,06,13.70
2005,08,16,08,07,13.70
2005,08,16,08,08,13.80
2005,08,16,08,09,13.90
2005,08,16,08,10,13.90
2005,08,16,08,11,14.00
2005,08,16,08,12,14.00
2005,08,16,08,13,14.00
2005,08,16,08,14,14.10
2005,08,16,08,15,14.10
2005,08,16,08,16,14.10
2005,08,16,08,17,14.20
2005,08,16,08,18,14.30
2005,08,16,08,19,14.40
2005,08,16,08,20,14.40
2005,08,16,08,21,14.40
2005,08,16,08,22,14.40
2005,08,16,08,23,14.50
2005,08,16,08,24,14.60
2005,08,16,08,25,14.60
2005,08,16,08,26,14.70
2005,08,16,08,27,14.70
2005,08,16,08,28,14.70
2005,08,16,08,29,14.80
2005,08,16,08,30,14.80
2005,08,16,08,31,14.80
2005,08,16,08,32,14.80
2005,08,16,08,33,14.90
2005,08,16,08,34,14.90
2005,08,16,08,35,15.00
2005,08,16,08,36,15.10
2005,08,16,08,37,15.20
2005,08,16,08,38,15.40
2005,08,16,08,39,15.50
2005,08,16,08,40,15.50
2005,08,16,08,41,15.60
2005,08,16,08,42,15.70
2005,08,16,08,43,15.80
2005,08,16,08,44,15.80
2005,08,16,08,45,15.90
2005,08,16,08,46,16.00
2005,08,16,08,47,16.10
2005,08,16,08,48,16.10
2005,08,16,08,49,16.20
2005,08,16,08,50,16.30
2005,08,16,08,51,16.40
2005,08,16,08,52,16.40
2005,08,16,08,53,16.50
2005,08,16,08,54,16.60
2005,08,16,08,55,16.70
2005,08,16,08,56,16.80
2005,08,16,08,57,17.00
2005,08,16,08,58,17.10
2005,08,16,08,59,17.30
2005,08,16,09,00,17.30
2005,08,16,09,01,17.20
2005,08,16,09,02,16.90
2005,08,16,09,03,16.70
2005,08,16,09,04,16.40
2005,08,16,09,05,16.20
2005,08,16,09,06,16.10
2005,08,16,09,07,16.00
2005,08,16,09,08,15.90
2005,08,16,09,09,15.80
2005,08,16,09,10,15.80
2005,08,16,09,11,15.70
2005,08,16,09,12,15.70
2005,08,16,09,13,15.70
2005,08,16,09,14,15.60
2005,08,16,09,15,15.70
2005,08,16,09,16,15.70
2005,08,16,09,17,15.80
2005,08,16,09,18,15.70
2005,08,16,09,19,15.70
2005,08,16,09,20,15.70
2005,08,16,09,21,15.70
2005,08,16,09,22,15.70
2005,08,16,09,23,15.80
2005,08,16,09,24,15.80
2005,08,16,09,25,15.80
2005,08,16,09,26,15.80
2005,08,16,09,27,15.90
2005,08,16,09,28,16.10
2005,08,16,09,29,16.30
2005,08,16,09,30,16.40
2005,08,16,09,31,16.50
2005,08,16,09,32,16.50
2005,08,16,09,33,16.60
2005,08,16,09,34,16.50
2005,08,16,09,35,16.60
2005,08,16,09,36,16.70
2005,08,16,09,37,16.80
2005,08,16,09,38,17.00
2005,08,16,09,39,17.30
2005,08,16,09,40,17.40
2005,08,16,09,41,17.60
2005,08,16,09,42,17.80
2005,08,16,09,43,18.00
2005,08,16,09,44,18.10
2005,08,16,09,45,18.20
2005,08,16,09,46,18.30
2005,08,16,09,47,18.30
2005,08,16,09,48,18.40
2005,08,16,09,49,18.40
2005,08,16,09,50,18.30
2005,08,16,09,51,18.30
2005,08,16,09,52,18.10
2005,08,16,09,53,18.00
2005,08,16,09,54,18.00
2005,08,16,09,55,18.20
2005,08,16,09,56,18.20
2005,08,16,09,57,17.90
2005,08,16,09,58,17.90
2005,08,16,09,59,17.90
2005,08,16,10,00,18.00
2005,08,16,10,01,17.90
2005,08,16,10,02,17.80
2005,08,16,10,03,17.70
2005,08,16,10,04,17.80
2005,08,16,10,05,17.60
2005,08,16,10,06,17.70
2005,08,16,10,07,17.80
2005,08,16,10,08,17.80
2005,08,16,10,09,17.80
2005,08,16,10,10,17.70
2005,08,16,10,11,17.80
2005,08,16,10,12,17.70
2005,08,16,10,13,17.70
2005,08,16,10,14,17.80
2005,08,16,10,15,17.80
2005,08,16,10,16,17.80
2005,08,16,10,17,17.90
2005,08,16,10,18,18.00
2005,08,16,10,19,18.10
2005,08,16,10,20,18.20
2005,08,16,10,21,18.20
2005,08,16,10,22,18.30
2005,08,16,10,23,18.50
2005,08,16,10,24,18.80
2005,08,16,10,25,19.00
2005,08,16,10,26,19.00
2005,08,16,10,27,19.10
2005,08,16,10,28,19.10
2005,08,16,10,29,19.10
2005,08,16,10,30,19.10
2005,08,16,10,31,19.10
2005,08,16,10,32,19.30
2005,08,16,10,33,19.40
2005,08,16,10,34,19.50
2005,08,16,10,35,19.30
2005,08,16,10,36,19.20
2005,08,16,10,37,19.10
2005,08,16,10,38,18.90
2005,08,16,10,39,18.80
2005,08,16,10,40,18.60
2005,08,16,10,41,18.50
2005,08,16,10,42,18.40
2005,08,16,10,43,18.30
2005,08,16,10,44,18.10
2005,08,16,10,45,17.80
2005,08,16,10,46,17.70
2005,08,16,10,47,17.70
2005,08,16,10,48,17.60
2005,08,16,10,49,17.60
2005,08,16,10,50,17.70
2005,08,16,10,51,17.80
2005,08,16,10,52,17.80
2005,08,16,10,53,17.90
2005,08,16,10,54,17.90
2005,08,16,10,55,17.90
2005,08,16,10,56,17.80
2005,08,16,10,57,17.90
2005,08,16,10,58,17.90
2005,08,16,10,59,17.80
2005,08,16,11,00,17.80
2005,08,16,11,01,17.80
2005,08,16,11,02,17.90
2005,08,16,11,03,18.00
2005,08,16,11,04,17.90
2005,08,16,11,05,17.80
2005,08,16,11,06,17.80
2005,08,16,11,07,17.70
2005,08,16,11,08,17.60
2005,08,16,11,09,17.50
2005,08,16,11,10,17.50
2005,08,16,11,11,17.60
2005,08,16,11,12,17.70
2005,08,16,11,13,17.90
2005,08,16,11,14,18.10
2005,08,16,11,15,18.20
2005,08,16,11,16,18.20
2005,08,16,11,17,18.20
2005,08,16,11,18,18.40
2005,08,16,11,19,18.50
2005,08,16,11,20,18.60
2005,08,16,11,21,18.70
2005,08,16,11,22,18.80
2005,08,16,11,23,18.70
2005,08,16,11,24,18.70
2005,08,16,11,25,18.70
2005,08,16,11,26,18.70
2005,08,16,11,27,18.80
2005,08,16,11,28,18.90
2005,08,16,11,29,19.00
2005,08,16,11,30,19.20
2005,08,16,11,31,19.30
2005,08,16,11,32,19.30
2005,08,16,11,33,19.40
2005,08,16,11,34,19.50
2005,08,16,11,35,19.60
2005,08,16,11,36,19.50
2005,08,16,11,37,19.60
2005,08,16,11,38,19.40
2005,08,16,11,39,19.30
2005,08,16,11,40,19.30
2005,08,16,11,41,19.20
2005,08,16,11,42,19.30
2005,08,16,11,43,19.30
2005,08,16,11,44,19.40
2005,08,16,11,45,19.50
2005,08,16,11,46,19.50
2005,08,16,11,47,19.50
2005,08,16,11,48,19.20
2005,08,16,11,49,19.20
2005,08,16,11,50,19.30
2005,08,16,11,51,19.30
2005,08,16,11,52,19.40
2005,08,16,11,53,19.50
2005,08,16,11,54,19.30
2005,08,16,11,55,19.30
2005,08,16,11,56,19.30
2005,08,16,11,57,19.30
2005,08,16,11,58,19.40
2005,08,16,11,59,19.50
2005,08,16,12,00,19.40
2005,08,16,12,01,19.30
2005,08,16,12,02,19.10
2005,08,16,12,03,19.00
2005,08,16,12,04,18.90
2005,08,16,12,05,19.00
2005,08,16,12,06,18.90
2005,08,16,12,07,18.70
2005,08,16,12,08,18.80
2005,08,16,12,09,19.00
2005,08,16,12,10,19.00
2005,08,16,12,11,19.00
2005,08,16,12,12,18.90
2005,08,16,12,13,18.70
2005,08,16,12,14,18.70
2005,08,16,12,15,18.50
2005,08,16,12,16,18.30
2005,08,16,12,17,18.20
2005,08,16,12,18,18.20
2005,08,16,12,19,18.40
2005,08,16,12,20,18.40
2005,08,16,12,21,18.40
2005,08,16,12,22,18.10
2005,08,16,12,23,17.90
2005,08,16,12,24,18.00
2005,08,16,12,25,18.20
2005,08,16,12,26,18.40
2005,08,16,12,27,18.40
2005,08,16,12,28,18.20
2005,08,16,12,29,18.30
2005,08,16,12,30,18.20
2005,08,16,12,31,18.50
2005,08,16,12,32,18.70
2005,08,16,12,33,19.00
2005,08,16,12,34,18.80
2005,08,16,12,35,18.70
2005,08,16,12,36,18.60
2005,08,16,12,37,18.50
2005,08,16,12,38,18.50
2005,08,16,12,39,18.60
2005,08,16,12,40,18.70
2005,08,16,12,41,18.60
2005,08,16,12,42,18.60
2005,08,16,12,43,18.40
2005,08,16,12,44,18.60
2005,08,16,12,45,18.70
2005,08,16,12,46,18.90
2005,08,16,12,47,19.10
2005,08,16,12,48,19.00
2005,08,16,12,49,19.00
2005,08,16,12,50,19.10
2005,08,16,12,51,19.30
2005,08,16,12,52,19.20
2005,08,16,12,53,19.10
2005,08,16,12,54,19.00
2005,08,16,12,55,19.00
2005,08,16,12,56,18.80
2005,08,16,12,57,18.80
2005,08,16,12,58,18.60
2005,08,16,12,59,18.60
2005,08,16,13,00,18.70
2005,08,16,13,01,18.70
2005,08,16,13,02,18.50
2005,08,16,13,03,18.50
2005,08,16,13,04,18.60
2005,08,16,13,05,18.50
2005,08,16,13,06,18.50
2005,08,16,13,07,18.40
2005,08,16,13,08,18.20
2005,08,16,13,09,18.20
2005,08,16,13,10,18.00
2005,08,16,13,11,18.20
2005,08,16,13,12,18.10
2005,08,16,13,13,18.00
2005,08,16,13,14,17.90
2005,08,16,13,15,17.90
2005,08,16,13,16,17.80
2005,08,16,13,17,17.70
2005,08,16,13,18,17.40
2005,08,16,13,19,17.50
2005,08,16,13,20,17.60
2005,08,16,13,21,17.60
2005,08,16,13,22,17.50
2005,08,16,13,23,17.30
2005,08,16,13,24,17.10
2005,08,16,13,25,17.00
2005,08,16,13,26,17.00
2005,08,16,13,27,17.00
2005,08,16,13,28,17.00
2005,08,16,13,29,17.10
2005,08,16,13,30,16.80
2005,08,16,13,31,16.80
2005,08,16,13,32,16.70
2005,08,16,13,33,16.80
2005,08,16,13,34,17.00
2005,08,16,13,35,17.00
2005,08,16,13,36,17.00
2005,08,16,13,37,17.30
2005,08,16,13,38,17.50
2005,08,16,13,39,17.50
2005,08,16,13,40,17.40
2005,08,16,13,41,17.40
2005,08,16,13,42,17.60
2005,08,16,13,43,17.70
2005,08,16,13,44,17.70
2005,08,16,13,45,17.60
2005,08,16,13,46,17.90
2005,08,16,13,47,18.00
2005,08,16,13,48,18.00
2005,08,16,13,49,18.00
2005,08,16,13,50,18.20
2005,08,16,13,51,18.40
2005,08,16,13,52,18.60
2005,08,16,13,53,18.80
2005,08,16,13,54,18.70
2005,08,16,13,55,18.30
2005,08,16,13,56,18.00
2005,08,16,13,57,17.80
2005,08,16,13,58,17.60
2005,08,16,13,59,17.40
2005,08,16,14,00,17.30
2005,08,16,14,01,17.40
2005,08,16,14,02,17.40
2005,08,16,14,03,17.50
2005,08,16,14,04,17.70
2005,08,16,14,05,17.90
2005,08,16,14,06,17.80
2005,08,16,14,07,17.90
2005,08,16,14,08,17.80
2005,08,16,14,09,17.80
2005,08,16,14,10,17.90
2005,08,16,14,11,18.10
2005,08,16,14,12,18.00
2005,08,16,14,13,17.90
2005,08,16,14,14,17.90
2005,08,16,14,15,18.00
2005,08,16,14,16,17.90
2005,08,16,14,17,18.00
2005,08,16,14,18,17.90
2005,08,16,14,19,17.90
2005,08,16,14,20,17.70
2005,08,16,14,21,17.60
2005,08,16,14,22,17.70
2005,08,16,14,23,17.80
2005,08,16,14,24,18.00
2005,08,16,14,25,18.10
2005,08,16,14,26,17.90
2005,08,16,14,27,17.90
2005,08,16,14,28,17.80
2005,08,16,14,29,17.80
2005,08,16,14,30,18.00
2005,08,16,14,31,18.30
2005,08,16,14,32,18.40
2005,08,16,14,33,18.60
2005,08,16,14,34,18.30
2005,08,16,14,35,18.40
2005,08,16,14,36,18.40
2005,08,16,14,37,18.10
2005,08,16,14,38,17.90
2005,08,16,14,39,17.60
2005,08,16,14,40,17.50
2005,08,16,14,41,17.50
2005,08,16,14,42,17.60
2005,08,16,14,43,17.70
2005,08,16,14,44,17.60
2005,08,16,14,45,17.80
2005,08,16,14,46,17.90
2005,08,16,14,47,18.00
2005,08,16,14,48,18.10
2005,08,16,14,49,18.20
2005,08,16,14,50,18.40
2005,08,16,14,51,18.40
2005,08,16,14,52,18.60
2005,08,16,14,53,18.50
2005,08,16,14,54,18.50
2005,08,16,14,55,18.30
2005,08,16,14,56,18.30
2005,08,16,14,57,18.40
2005,08,16,14,58,18.60
2005,08,16,14,59,18.90
2005,08,16,15,00,18.80
2005,08,16,15,01,18.80
2005,08,16,15,02,18.90
2005,08,16,15,03,19.00
2005,08,16,15,04,19.10
2005,08,16,15,05,19.20
2005,08,16,15,06,19.10
2005,08,16,15,07,19.00
2005,08,16,15,08,18.80
2005,08,16,15,09,18.60
2005,08,16,15,10,18.50
2005,08,16,15,11,18.60
2005,08,16,15,12,18.60
2005,08,16,15,13,18.70
2005,08,16,15,14,18.60
2005,08,16,15,15,18.40
2005,08,16,15,16,18.40
2005,08,16,15,17,18.40
2005,08,16,15,18,18.20
2005,08,16,15,19,18.30
2005,08,16,15,20,18.40
2005,08,16,15,21,18.50
2005,08,16,15,22,18.60
2005,08,16,15,23,18.70
2005,08,16,15,24,18.60
2005,08,16,15,25,18.60
2005,08,16,15,26,18.80
2005,08,16,15,27,18.90
2005,08,16,15,28,19.00
2005,08,16,15,29,19.20
2005,08,16,15,30,19.40
2005,08,16,15,31,19.70
2005,08,16,15,32,19.90
2005,08,16,15,33,20.20
2005,08,16,15,34,20.30
2005,08,16,15,35,20.40
2005,08,16,15,36,20.50
2005,08,16,15,37,20.50
2005,08,16,15,38,20.70
2005,08,16,15,39,20.60
2005,08,16,15,40,20.40
2005,08,16,15,41,20.30
2005,08,16,15,42,20.30
2005,08,16,15,43,20.50
2005,08,16,15,44,20.60
2005,08,16,15,45,20.70
2005,08,16,15,46,21.00
2005,08,16,15,47,21.20
2005,08,16,15,48,21.40
2005,08,16,15,49,21.50
2005,08,16,15,50,21.60
2005,08,16,15,51,21.90
2005,08,16,15,52,22.20
2005,08,16,15,53,22.30
2005,08,16,15,54,22.30
2005,08,16,15,55,22.30
2005,08,16,15,56,22.30
2005,08,16,15,57,22.30
2005,08,16,15,58,22.40
2005,08,16,15,59,22.50
2005,08,16,16,00,22.60
2005,08,16,16,01,22.70
2005,08,16,16,02,22.50
2005,08,16,16,03,22.50
2005,08,16,16,04,22.30
2005,08,16,16,05,22.40
2005,08,16,16,06,22.50
2005,08,16,16,07,22.50
2005,08,16,16,08,22.60
2005,08,16,16,09,22.50
2005,08,16,16,10,22.40
2005,08,16,16,11,22.20
2005,08,16,16,12,22.10
2005,08,16,16,13,21.90
2005,08,16,16,14,21.80
2005,08,16,16,15,21.90
2005,08,16,16,16,21.80
2005,08,16,16,17,22.00
2005,08,16,16,18,22.00
2005,08,16,16,19,22.20
2005,08,16,16,20,22.20
2005,08,16,16,21,22.20
2005,08,16,16,22,22.40
2005,08,16,16,23,22.60
2005,08,16,16,24,22.60
2005,08,16,16,25,22.70
2005,08,16,16,26,22.80
2005,08,16,16,27,22.70
2005,08,16,16,28,22.80
2005,08,16,16,29,22.70
2005,08,16,16,30,22.60
2005,08,16,16,31,22.80
2005,08,16,16,32,22.80
2005,08,16,16,33,22.80
2005,08,16,16,34,22.70
2005,08,16,16,35,22.80
2005,08,16,16,36,22.80
2005,08,16,16,37,22.70
2005,08,16,16,38,22.60
2005,08,16,16,39,22.50
2005,08,16,16,40,22.60
2005,08,16,16,41,22.40
2005,08,16,16,42,22.20
2005,08,16,16,43,22.30
2005,08,16,16,44,22.30
2005,08,16,16,45,22.40
2005,08,16,16,46,22.30
2005,08,16,16,47,22.40
2005,08,16,16,48,22.40
2005,08,16,16,49,22.30
2005,08,16,16,50,22.30
2005,08,16,16,51,22.40
2005,08,16,16,52,22.50
2005,08,16,16,53,22.60
2005,08,16,16,54,22.50
2005,08,16,16,55,22.70
2005,08,16,16,56,22.70
2005,08,16,16,57,22.80
2005,08,16,16,58,22.90
2005,08,16,16,59,23.10
2005,08,16,17,00,23.10
2005,08,16,17,01,22.90
2005,08,16,17,02,22.90
2005,08,16,17,03,22.60
2005,08,16,17,04,22.60
2005,08,16,17,05,22.40
2005,08,16,17,06,22.40
2005,08,16,17,07,22.40
2005,08,16,17,08,22.50
2005,08,16,17,09,22.30
2005,08,16,17,10,22.30
2005,08,16,17,11,22.10
2005,08,16,17,12,22.00
2005,08,16,17,13,22.00
2005,08,16,17,14,22.10
2005,08,16,17,15,22.00
2005,08,16,17,16,22.20
2005,08,16,17,17,22.40
2005,08,16,17,18,22.60
2005,08,16,17,19,22.60
2005,08,16,17,20,22.60
2005,08,16,17,21,22.50
2005,08,16,17,22,22.60
2005,08,16,17,23,22.40
2005,08,16,17,24,22.40
2005,08,16,17,25,22.50
2005,08,16,17,26,22.50
2005,08,16,17,27,22.30
2005,08,16,17,28,22.20
2005,08,16,17,29,22.10
2005,08,16,17,30,22.00
2005,08,16,17,31,21.90
2005,08,16,17,32,21.90
2005,08,16,17,33,21.80
2005,08,16,17,34,21.60
2005,08,16,17,35,21.50
2005,08,16,17,36,21.40
2005,08,16,17,37,21.40
2005,08,16,17,38,21.40
2005,08,16,17,39,21.40
2005,08,16,17,40,21.60
2005,08,16,17,41,21.60
2005,08,16,17,42,21.60
2005,08,16,17,43,21.60
2005,08,16,17,44,21.60
2005,08,16,17,45,21.60
2005,08,16,17,46,21.60